Time,TemperatureF,DewpointF,PressureIn,WindDirection,WindDirectionDegrees,WindSpeedMPH,WindSpeedGustMPH,Humidity,HourlyPrecipIn,Conditions,Clouds,dailyrainin,SoftwareType,DateUTC
2013-01-13 00:04:00,4.6,-1.5,29.52,NE,45,0.0,0.0,75,0.00,CLR,,0.00,WeatherDisplay:10.37,2013-01-13 07:04:00,
2013-01-13 00:09:00,4.6,-1.3,29.52,NE,45,0.0,0.0,76,0.00,CLR,,0.00,WeatherDisplay:10.37,2013-01-13 07:09:00,
2013-01-13 00:14:00,4.6,-1.3,29.51,NE,45,0.0,0.0,76,0.00,CLR,,0.00,WeatherDisplay:10.37,2013-01-13 07:14:00,
2013-01-13 00:19:00,4.8,-1.1,29.51,NE,45,0.0,0.0,76,0.00,CLR,,0.00,WeatherDisplay:10.37,2013-01-13 07:19:00,
2013-01-13 00:24:00,4.8,-1.1,29.51,NE,45,0.0,0.0,76,0.00,CLR,,0.00,WeatherDisplay:10.37,2013-01-13 07:24:00,
2013-01-13 00:29:00,4.8,-1.1,29.51,East,90,0.0,0.0,76,0.00,CLR,,0.00,WeatherDisplay:10.37,2013-01-13 07:29:00,
2013-01-13 00:34:00,4.6,-1.5,29.50,East,90,0.0,0.0,75,0.00,CLR,,0.00,WeatherDisplay:10.37,2013-01-13 07:34:00,
2013-01-13 00:39:00,4.6,-1.3,29.50,East,90,0.0,0.0,76,0.00,CLR,,0.00,WeatherDisplay:10.37,2013-01-13 07:39:00,
2013-01-13 00:44:00,4.8,-1.1,29.50,ENE,68,0.0,0.0,76,0.00,CLR,,0.00,WeatherDisplay:10.37,2013-01-13 07:44:00,
2013-01-13 00:49:00,4.8,-1.1,29.50,SE,135,0.0,0.0,76,0.00,CLR,,0.00,WeatherDisplay:10.37,2013-01-13 07:49:00,
2013-01-13 00:54:00,4.8,-1.1,29.50,SE,135,0.0,0.0,76,0.00,CLR,,0.00,WeatherDisplay:10.37,2013-01-13 07:54:00,
2013-01-13 00:59:00,4.8,-1.1,29.50,NNW,338,0.0,0.0,76,0.00,CLR,,0.00,WeatherDisplay:10.37,2013-01-13 07:59:00,
2013-01-13 01:04:00,4.8,-1.1,29.50,ESE,112,0.0,0.0,76,0.00,CLR,,0.00,WeatherDisplay:10.37,2013-01-13 08:04:00,
2013-01-13 01:09:00,4.8,-1.1,29.50,NE,45,0.0,0.0,76,0.00,CLR,,0.00,WeatherDisplay:10.37,2013-01-13 08:09:00,
2013-01-13 01:14:00,4.8,-1.1,29.51,ENE,68,0.0,0.0,76,0.00,CLR,,0.00,WeatherDisplay:10.37,2013-01-13 08:14:00,
2013-01-13 01:19:00,4.8,-1.1,29.51,ENE,68,0.0,0.0,76,0.00,CLR,,0.00,WeatherDisplay:10.37,2013-01-13 08:19:00,
2013-01-13 01:24:00,5.2,-0.7,29.51,North,0,0.0,0.0,76,0.00,CLR,,0.00,WeatherDisplay:10.37,2013-01-13 08:24:00,
2013-01-13 01:29:00,5.2,-0.7,29.51,SE,135,0.0,0.0,76,0.00,CLR,,0.00,WeatherDisplay:10.37,2013-01-13 08:29:00,
2013-01-13 01:34:00,5.2,-1.0,29.51,South,180,0.0,0.0,75,0.00,CLR,,0.00,WeatherDisplay:10.37,2013-01-13 08:34:00,
2013-01-13 01:39:00,5.2,-1.0,29.51,SE,135,0.0,0.0,75,0.00,CLR,,0.00,WeatherDisplay:10.37,2013-01-13 08:39:00,
2013-01-13 01:44:00,5.2,-0.7,29.51,SE,135,0.0,0.0,76,0.00,CLR,,0.00,WeatherDisplay:10.37,2013-01-13 08:44:00,
2013-01-13 01:49:00,5.2,-1.0,29.51,SSE,158,0.0,0.0,75,0.00,CLR,,0.00,WeatherDisplay:10.37,2013-01-13 08:49:00,
2013-01-13 01:54:00,5.2,-1.0,29.51,SSE,158,0.0,0.0,75,0.00,CLR,,0.00,WeatherDisplay:10.37,2013-01-13 08:54:00,
2013-01-13 01:59:00,4.8,-1.4,29.51,NW,315,0.0,0.0,75,0.00,CLR,,0.00,WeatherDisplay:10.37,2013-01-13 08:59:00,
2013-01-13 02:04:00,4.8,-1.4,29.51,SSE,158,0.0,0.0,75,0.00,CLR,,0.00,WeatherDisplay:10.37,2013-01-13 09:04:00,
2013-01-13 02:09:00,4.8,-1.4,29.51,North,0,0.0,0.0,75,0.00,CLR,,0.00,WeatherDisplay:10.37,2013-01-13 09:09:00,
2013-01-13 02:14:00,4.8,-1.4,29.51,NNW,338,0.0,0.0,75,0.00,CLR,,0.00,WeatherDisplay:10.37,2013-01-13 09:14:00,
2013-01-13 02:19:00,4.8,-1.4,29.51,ENE,68,0.0,0.0,75,0.00,CLR,,0.00,WeatherDisplay:10.37,2013-01-13 09:19:00,
2013-01-13 02:24:00,4.8,-1.1,29.51,ENE,68,0.0,0.0,76,0.00,CLR,,0.00,WeatherDisplay:10.37,2013-01-13 09:24:00,
2013-01-13 02:29:00,4.8,-1.4,29.51,North,0,0.0,0.0,75,0.00,CLR,,0.00,WeatherDisplay:10.37,2013-01-13 09:29:00,
2013-01-13 02:34:00,4.8,-1.4,29.51,SE,135,0.0,0.0,75,0.00,CLR,,0.00,WeatherDisplay:10.37,2013-01-13 09:34:00,
2013-01-13 02:39:00,4.8,-1.4,29.51,SE,135,0.0,0.0,75,0.00,CLR,,0.00,WeatherDisplay:10.37,2013-01-13 09:39:00,
2013-01-13 02:44:00,4.8,-1.4,29.51,SE,135,0.0,0.0,75,0.00,CLR,,0.00,WeatherDisplay:10.37,2013-01-13 09:44:00,
2013-01-13 02:49:00,4.8,-1.4,29.51,NE,45,0.0,0.0,75,0.00,CLR,,0.00,WeatherDisplay:10.37,2013-01-13 09:49:00,
2013-01-13 02:54:00,4.8,-1.1,29.52,SE,135,0.0,0.0,76,0.00,CLR,,0.00,WeatherDisplay:10.37,2013-01-13 09:54:00,
2013-01-13 02:59:00,4.8,-1.4,29.52,NNW,338,0.0,0.0,75,0.00,CLR,,0.00,WeatherDisplay:10.37,2013-01-13 09:59:00,
2013-01-13 03:04:00,4.8,-1.4,29.52,North,0,0.0,0.0,75,0.00,CLR,,0.00,WeatherDisplay:10.37,2013-01-13 10:04:00,
2013-01-13 03:09:00,5.2,-1.0,29.52,SW,225,0.0,0.0,75,0.00,CLR,,0.00,WeatherDisplay:10.37,2013-01-13 10:09:00,
2013-01-13 03:14:00,5.2,-1.0,29.52,NW,315,0.0,0.0,75,0.00,CLR,,0.00,WeatherDisplay:10.37,2013-01-13 10:14:00,
2013-01-13 03:19:00,5.2,-1.0,29.52,NW,315,0.0,0.0,75,0.00,CLR,,0.00,WeatherDisplay:10.37,2013-01-13 10:19:00,
2013-01-13 03:24:00,5.2,-1.0,29.52,North,0,0.0,0.0,75,0.00,CLR,,0.00,WeatherDisplay:10.37,2013-01-13 10:24:00,
2013-01-13 03:29:00,5.2,-1.0,29.52,North,0,0.0,0.0,75,0.00,CLR,,0.00,WeatherDisplay:10.37,2013-01-13 10:29:00,
2013-01-13 03:34:00,5.2,-1.0,29.53,SSW,202,0.0,0.0,75,0.00,CLR,,0.00,WeatherDisplay:10.37,2013-01-13 10:34:00,
2013-01-13 03:39:00,5.2,-1.0,29.53,SSW,202,0.0,0.0,75,0.00,CLR,,0.00,WeatherDisplay:10.37,2013-01-13 10:39:00,
2013-01-13 03:44:00,5.2,-1.0,29.53,SSE,158,0.0,0.0,75,0.00,CLR,,0.00,WeatherDisplay:10.37,2013-01-13 10:44:00,
2013-01-13 03:49:00,5.2,-1.0,29.53,East,90,0.0,0.0,75,0.00,CLR,,0.00,WeatherDisplay:10.37,2013-01-13 10:49:00,
2013-01-13 03:54:00,5.2,-1.0,29.53,SSW,202,0.0,0.0,75,0.00,CLR,,0.00,WeatherDisplay:10.37,2013-01-13 10:54:00,
2013-01-13 03:59:00,5.2,-1.0,29.53,SSW,202,0.0,0.0,75,0.00,CLR,,0.00,WeatherDisplay:10.37,2013-01-13 10:59:00,
2013-01-13 04:04:00,5.2,-1.0,29.53,SW,225,0.0,0.0,75,0.00,CLR,,0.00,WeatherDisplay:10.37,2013-01-13 11:04:00,
2013-01-13 04:09:00,5.2,-1.0,29.53,WNW,292,0.0,0.0,75,0.00,CLR,,0.00,WeatherDisplay:10.37,2013-01-13 11:09:00,
2013-01-13 04:14:00,5.2,-1.0,29.53,WSW,248,0.0,0.0,75,0.00,CLR,,0.00,WeatherDisplay:10.37,2013-01-13 11:14:00,
2013-01-13 04:19:00,5.2,-1.0,29.53,NNW,338,0.0,0.0,75,0.00,CLR,,0.00,WeatherDisplay:10.37,2013-01-13 11:19:00,
2013-01-13 04:24:00,5.2,-1.0,29.53,NNW,338,0.0,0.0,75,0.00,CLR,,0.00,WeatherDisplay:10.37,2013-01-13 11:24:00,
2013-01-13 04:29:00,5.2,-1.0,29.53,North,0,0.0,0.0,75,0.00,CLR,,0.00,WeatherDisplay:10.37,2013-01-13 11:29:00,
2013-01-13 04:34:00,5.2,-1.0,29.52,North,0,0.0,0.0,75,0.00,CLR,,0.00,WeatherDisplay:10.37,2013-01-13 11:34:00,
2013-01-13 04:39:00,5.2,-1.0,29.52,North,0,0.0,0.0,75,0.00,CLR,,0.00,WeatherDisplay:10.37,2013-01-13 11:39:00,
2013-01-13 04:44:00,5.2,-1.0,29.52,North,0,0.0,0.0,75,0.00,CLR,,0.00,WeatherDisplay:10.37,2013-01-13 11:44:00,
2013-01-13 04:49:00,5.2,-1.0,29.52,NNW,338,0.0,0.0,75,0.00,CLR,,0.00,WeatherDisplay:10.37,2013-01-13 11:49:00,
2013-01-13 04:54:00,5.2,-1.0,29.52,North,0,0.0,0.0,75,0.00,CLR,,0.00,WeatherDisplay:10.37,2013-01-13 11:54:00,
2013-01-13 04:59:00,5.0,-1.2,29.52,NNE,22,0.0,0.0,75,0.00,CLR,,0.00,WeatherDisplay:10.37,2013-01-13 11:59:00,
2013-01-13 05:04:00,5.0,-1.2,29.52,NNW,338,0.0,0.0,75,0.00,CLR,,0.00,WeatherDisplay:10.37,2013-01-13 12:04:00,
2013-01-13 05:09:00,5.0,-1.2,29.52,NNW,338,0.0,0.0,75,0.00,CLR,,0.00,WeatherDisplay:10.37,2013-01-13 12:09:00,
2013-01-13 05:14:00,5.2,-1.0,29.51,NE,45,0.0,0.0,75,0.00,CLR,,0.00,WeatherDisplay:10.37,2013-01-13 12:14:00,
2013-01-13 05:19:00,5.2,-1.0,29.51,NE,45,0.0,0.0,75,0.00,CLR,,0.00,WeatherDisplay:10.37,2013-01-13 12:19:00,
2013-01-13 05:24:00,5.2,-1.0,29.51,NE,45,0.0,0.0,75,0.00,CLR,,0.00,WeatherDisplay:10.37,2013-01-13 12:24:00,
2013-01-13 05:29:00,5.2,-0.7,29.51,SE,135,0.0,0.0,76,0.00,CLR,,0.00,WeatherDisplay:10.37,2013-01-13 12:29:00,
2013-01-13 05:34:00,5.0,-1.2,29.51,SSW,202,0.0,0.0,75,0.00,CLR,,0.00,WeatherDisplay:10.37,2013-01-13 12:34:00,
2013-01-13 05:39:00,5.0,-1.2,29.51,SSW,202,0.0,0.0,75,0.00,CLR,,0.00,WeatherDisplay:10.37,2013-01-13 12:39:00,
2013-01-13 05:44:00,5.2,-1.0,29.51,SSW,202,0.0,0.0,75,0.00,CLR,,0.00,WeatherDisplay:10.37,2013-01-13 12:44:00,
2013-01-13 05:49:00,5.2,-1.0,29.51,SSW,202,0.0,0.0,75,0.00,CLR,,0.00,WeatherDisplay:10.37,2013-01-13 12:49:00,
2013-01-13 05:54:00,5.2,-1.0,29.51,SSW,202,0.0,0.0,75,0.00,CLR,,0.00,WeatherDisplay:10.37,2013-01-13 12:54:00,
2013-01-13 05:59:00,5.2,-1.0,29.51,SSW,202,0.0,0.0,75,0.00,CLR,,0.00,WeatherDisplay:10.37,2013-01-13 12:59:00,
2013-01-13 06:04:00,5.2,-1.0,29.51,SSW,202,0.0,0.0,75,0.00,CLR,,0.00,WeatherDisplay:10.37,2013-01-13 13:04:00,
2013-01-13 06:09:00,5.2,-1.0,29.51,NW,315,0.0,0.0,75,0.00,CLR,,0.00,WeatherDisplay:10.37,2013-01-13 13:09:00,
2013-01-13 06:14:00,5.2,-1.0,29.51,NW,315,0.0,0.0,75,0.00,CLR,,0.00,WeatherDisplay:10.37,2013-01-13 13:14:00,
2013-01-13 06:19:00,5.2,-1.0,29.51,North,0,0.0,0.0,75,0.00,CLR,,0.00,WeatherDisplay:10.37,2013-01-13 13:19:00,
2013-01-13 06:24:00,5.2,-1.0,29.51,WNW,292,0.0,0.0,75,0.00,CLR,,0.00,WeatherDisplay:10.37,2013-01-13 13:24:00,
2013-01-13 06:29:00,5.0,-1.2,29.51,North,0,0.0,0.0,75,0.00,CLR,,0.00,WeatherDisplay:10.37,2013-01-13 13:29:00,
2013-01-13 06:34:00,5.0,-1.2,29.52,NNE,22,0.0,0.0,75,0.00,CLR,,0.00,WeatherDisplay:10.37,2013-01-13 13:34:00,
2013-01-13 06:39:00,5.2,-1.0,29.52,NNE,22,0.0,0.0,75,0.00,CLR,,0.00,WeatherDisplay:10.37,2013-01-13 13:39:00,
2013-01-13 06:44:00,5.2,-1.0,29.52,SSW,202,0.0,0.0,75,0.00,CLR,,0.00,WeatherDisplay:10.37,2013-01-13 13:44:00,
2013-01-13 06:49:00,4.8,-1.4,29.52,SSW,202,0.0,0.0,75,0.00,CLR,,0.00,WeatherDisplay:10.37,2013-01-13 13:49:00,
2013-01-13 06:54:00,4.8,-1.4,29.53,South,180,0.0,0.0,75,0.00,CLR,,0.00,WeatherDisplay:10.37,2013-01-13 13:54:00,
2013-01-13 06:59:00,4.6,-1.5,29.53,South,180,0.0,0.0,75,0.00,CLR,,0.00,WeatherDisplay:10.37,2013-01-13 13:59:00,
2013-01-13 07:04:00,4.5,-1.7,29.53,South,180,0.0,0.0,75,0.00,CLR,,0.00,WeatherDisplay:10.37,2013-01-13 14:04:00,
2013-01-13 07:09:00,4.5,-1.7,29.53,South,180,0.0,0.0,75,0.00,CLR,,0.00,WeatherDisplay:10.37,2013-01-13 14:09:00,
2013-01-13 07:14:00,4.5,-1.7,29.53,SE,135,0.0,0.0,75,0.00,CLR,,0.00,WeatherDisplay:10.37,2013-01-13 14:14:00,
2013-01-13 07:19:00,4.1,-2.1,29.53,ENE,68,0.0,0.0,75,0.00,CLR,,0.00,WeatherDisplay:10.37,2013-01-13 14:19:00,
2013-01-13 07:24:00,3.9,-2.2,29.53,ENE,68,0.0,0.0,75,0.00,CLR,,0.00,WeatherDisplay:10.37,2013-01-13 14:24:00,
2013-01-13 07:29:00,3.7,-2.4,29.53,ENE,68,0.0,0.0,75,0.00,CLR,,0.00,WeatherDisplay:10.37,2013-01-13 14:29:00,
2013-01-13 07:34:00,3.7,-2.4,29.54,ENE,68,0.0,0.0,75,0.00,CLR,,0.00,WeatherDisplay:10.37,2013-01-13 14:34:00,
2013-01-13 07:39:00,3.2,-2.9,29.54,ENE,68,0.0,0.0,75,0.00,CLR,,0.00,WeatherDisplay:10.37,2013-01-13 14:39:00,
2013-01-13 07:44:00,3.0,-3.1,29.54,North,0,0.0,0.0,75,0.00,CLR,,0.00,WeatherDisplay:10.37,2013-01-13 14:44:00,
2013-01-13 07:49:00,3.0,-3.1,29.54,North,0,0.0,0.0,75,0.00,CLR,,0.00,WeatherDisplay:10.37,2013-01-13 14:49:00,
2013-01-13 07:54:00,2.7,-3.5,29.54,North,0,0.0,0.0,75,0.00,CLR,,0.00,WeatherDisplay:10.37,2013-01-13 14:54:00,
2013-01-13 07:59:00,2.5,-3.6,29.54,North,0,0.0,0.0,75,0.00,CLR,,0.00,WeatherDisplay:10.37,2013-01-13 14:59:00,
2013-01-13 08:04:00,2.3,-3.8,29.54,North,0,0.0,0.0,75,0.00,CLR,,0.00,WeatherDisplay:10.37,2013-01-13 15:04:00,
2013-01-13 08:09:00,2.3,-3.8,29.54,NNE,22,0.0,0.0,75,0.00,CLR,,0.00,WeatherDisplay:10.37,2013-01-13 15:09:00,
2013-01-13 08:14:00,1.9,-4.2,29.55,North,0,0.0,0.0,75,0.00,CLR,,0.00,WeatherDisplay:10.37,2013-01-13 15:14:00,
2013-01-13 08:19:00,1.9,-4.2,29.55,North,0,0.0,0.0,75,0.00,CLR,,0.00,WeatherDisplay:10.37,2013-01-13 15:19:00,
2013-01-13 08:24:00,1.6,-4.5,29.55,East,90,0.0,0.0,75,0.00,CLR,,0.00,WeatherDisplay:10.37,2013-01-13 15:24:00,
2013-01-13 08:29:00,1.6,-4.5,29.55,ENE,68,0.0,0.0,75,0.00,CLR,,0.00,WeatherDisplay:10.37,2013-01-13 15:29:00,
2013-01-13 08:34:00,1.6,-4.5,29.55,ENE,68,0.0,0.0,75,0.00,CLR,,0.00,WeatherDisplay:10.37,2013-01-13 15:34:00,
2013-01-13 08:39:00,1.2,-4.9,29.55,ENE,68,0.0,0.0,75,0.00,CLR,,0.00,WeatherDisplay:10.37,2013-01-13 15:39:00,
2013-01-13 08:44:00,1.0,-5.0,29.55,ENE,68,0.0,0.0,75,0.00,CLR,,0.00,WeatherDisplay:10.37,2013-01-13 15:44:00,
2013-01-13 08:49:00,0.9,-5.2,29.55,ENE,68,0.0,0.0,75,0.00,CLR,,0.00,WeatherDisplay:10.37,2013-01-13 15:49:00,
2013-01-13 08:54:00,0.9,-5.2,29.56,NE,45,0.0,0.0,75,0.00,CLR,,0.00,WeatherDisplay:10.37,2013-01-13 15:54:00,
2013-01-13 08:59:00,0.9,-5.2,29.56,NE,45,0.0,0.0,75,0.00,CLR,,0.00,WeatherDisplay:10.37,2013-01-13 15:59:00,
2013-01-13 09:04:00,0.5,-5.6,29.56,ENE,68,0.0,0.0,75,0.00,CLR,,0.00,WeatherDisplay:10.37,2013-01-13 16:04:00,
2013-01-13 09:09:00,0.5,-5.6,29.56,East,90,0.0,0.0,75,0.00,CLR,,0.00,WeatherDisplay:10.37,2013-01-13 16:09:00,
2013-01-13 09:14:00,0.5,-5.6,29.56,East,90,0.0,0.0,75,0.00,CLR,,0.00,WeatherDisplay:10.37,2013-01-13 16:14:00,
2013-01-13 09:19:00,0.5,-5.6,29.56,East,90,0.0,0.0,75,0.00,CLR,,0.00,WeatherDisplay:10.37,2013-01-13 16:19:00,
2013-01-13 09:24:00,0.9,-5.2,29.56,East,90,0.0,0.0,75,0.00,CLR,,0.00,WeatherDisplay:10.37,2013-01-13 16:24:00,
2013-01-13 09:29:00,0.9,-5.2,29.56,East,90,0.0,0.0,75,0.00,CLR,,0.00,WeatherDisplay:10.37,2013-01-13 16:29:00,
2013-01-13 09:34:00,0.9,-5.2,29.56,North,0,0.0,0.0,75,0.00,CLR,,0.00,WeatherDisplay:10.37,2013-01-13 16:34:00,
2013-01-13 09:39:00,1.0,-5.0,29.56,ENE,68,0.0,0.0,75,0.00,CLR,,0.00,WeatherDisplay:10.37,2013-01-13 16:39:00,
2013-01-13 09:44:00,1.2,-4.9,29.56,ENE,68,0.0,0.0,75,0.00,CLR,,0.00,WeatherDisplay:10.37,2013-01-13 16:44:00,
2013-01-13 09:49:00,1.6,-4.5,29.56,ENE,68,0.0,0.0,75,0.00,CLR,,0.00,WeatherDisplay:10.37,2013-01-13 16:49:00,
2013-01-13 09:54:00,1.6,-4.5,29.55,South,180,0.0,0.0,75,0.00,CLR,,0.00,WeatherDisplay:10.37,2013-01-13 16:54:00,
2013-01-13 09:59:00,1.8,-4.3,29.55,South,180,0.0,0.0,75,0.00,CLR,,0.00,WeatherDisplay:10.37,2013-01-13 16:59:00,
2013-01-13 10:04:00,2.3,-3.8,29.55,East,90,0.0,0.0,75,0.00,CLR,,0.00,WeatherDisplay:10.37,2013-01-13 17:04:00,
2013-01-13 10:09:00,2.5,-3.6,29.55,ESE,112,0.0,0.0,75,0.00,CLR,,0.00,WeatherDisplay:10.37,2013-01-13 17:09:00,
2013-01-13 10:14:00,2.7,-3.5,29.55,SSE,158,0.0,0.0,75,0.00,CLR,,0.00,WeatherDisplay:10.37,2013-01-13 17:14:00,
2013-01-13 10:19:00,3.0,-3.1,29.55,SSW,202,0.0,0.0,75,0.00,CLR,,0.00,WeatherDisplay:10.37,2013-01-13 17:19:00,
2013-01-13 10:24:00,3.4,-2.8,29.55,SW,225,0.0,0.0,75,0.00,CLR,,0.00,WeatherDisplay:10.37,2013-01-13 17:24:00,
2013-01-13 10:29:00,3.7,-2.4,29.55,SW,225,0.0,0.0,75,0.00,CLR,,0.00,WeatherDisplay:10.37,2013-01-13 17:29:00,
2013-01-13 10:34:00,3.7,-2.4,29.58,SW,225,0.0,0.0,75,0.00,CLR,,0.00,WeatherDisplay:10.37,2013-01-13 17:34:00,
2013-01-13 10:39:00,4.5,-1.7,29.58,SSW,202,0.0,0.0,75,0.00,CLR,,0.00,WeatherDisplay:10.37,2013-01-13 17:39:00,
2013-01-13 10:44:00,4.5,-1.7,29.58,SSE,158,0.0,0.0,75,0.00,CLR,,0.00,WeatherDisplay:10.37,2013-01-13 17:44:00,
2013-01-13 10:49:00,4.8,-1.4,29.58,South,180,0.0,0.0,75,0.00,CLR,,0.00,WeatherDisplay:10.37,2013-01-13 17:49:00,
2013-01-13 10:54:00,5.2,-1.0,29.62,SSW,202,0.0,0.0,75,0.00,CLR,,0.00,WeatherDisplay:10.37,2013-01-13 17:54:00,
2013-01-13 10:59:00,5.9,-0.3,29.62,SW,225,0.0,0.0,75,0.00,CLR,,0.00,WeatherDisplay:10.37,2013-01-13 17:59:00,
2013-01-13 11:04:00,5.9,-0.3,29.62,SW,225,0.0,0.0,75,0.00,CLR,,0.00,WeatherDisplay:10.37,2013-01-13 18:04:00,
2013-01-13 11:09:00,6.3,0.0,29.62,SW,225,0.0,0.0,75,0.00,CLR,,0.00,WeatherDisplay:10.37,2013-01-13 18:09:00,
2013-01-13 11:14:00,6.6,0.4,29.62,SW,225,0.0,0.0,75,0.00,CLR,,0.00,WeatherDisplay:10.37,2013-01-13 18:14:00,
2013-01-13 11:19:00,7.0,1.0,29.62,SSW,202,0.0,0.0,76,0.00,CLR,,0.00,WeatherDisplay:10.37,2013-01-13 18:19:00,
2013-01-13 11:24:00,7.3,1.1,29.62,SW,225,0.0,0.0,75,0.00,CLR,,0.00,WeatherDisplay:10.37,2013-01-13 18:24:00,
2013-01-13 11:29:00,7.5,1.2,29.62,SSW,202,0.0,0.0,75,0.00,CLR,,0.00,WeatherDisplay:10.37,2013-01-13 18:29:00,
2013-01-13 11:34:00,7.7,1.4,29.62,SW,225,0.0,0.0,75,0.00,CLR,,0.00,WeatherDisplay:10.37,2013-01-13 18:34:00,
2013-01-13 11:39:00,8.1,1.8,29.62,SSW,202,0.0,0.0,75,0.00,CLR,,0.00,WeatherDisplay:10.37,2013-01-13 18:39:00,
2013-01-13 11:44:00,8.2,1.9,29.62,SSW,202,0.0,0.0,75,0.00,CLR,,0.00,WeatherDisplay:10.37,2013-01-13 18:44:00,
2013-01-13 11:49:00,8.4,2.1,29.62,SSW,202,0.0,0.0,75,0.00,CLR,,0.00,WeatherDisplay:10.37,2013-01-13 18:49:00,
2013-01-13 11:54:00,8.8,2.5,29.62,South,180,1.1,1.1,75,0.00,CLR,,0.00,WeatherDisplay:10.37,2013-01-13 18:54:00,
2013-01-13 12:00:00,9.0,2.6,29.62,SSE,158,1.1,1.1,75,0.00,CLR,,0.00,WeatherDisplay:10.37,2013-01-13 19:00:00,
2013-01-13 12:05:00,9.1,2.8,29.62,SSW,202,0.0,0.3,75,0.00,CLR,,0.00,WeatherDisplay:10.37,2013-01-13 19:05:00,
2013-01-13 12:10:00,9.1,2.8,29.62,SSW,202,0.0,0.3,75,0.00,CLR,,0.00,WeatherDisplay:10.37,2013-01-13 19:10:00,
2013-01-13 12:15:00,9.7,3.3,29.61,SSE,158,1.3,1.3,75,0.00,CLR,,0.00,WeatherDisplay:10.37,2013-01-13 19:15:00,
2013-01-13 12:20:00,9.9,3.5,29.61,SE,135,2.3,2.3,75,0.00,CLR,,0.00,WeatherDisplay:10.37,2013-01-13 19:20:00,
2013-01-13 12:25:00,10.2,3.6,29.61,SSW,202,0.0,0.3,74,0.00,CLR,,0.00,WeatherDisplay:10.37,2013-01-13 19:25:00,
2013-01-13 12:30:00,10.0,3.4,29.61,SSW,202,0.0,0.0,74,0.00,CLR,,0.00,WeatherDisplay:10.37,2013-01-13 19:30:00,
2013-01-13 12:35:00,10.2,3.6,29.60,SW,225,0.0,0.0,74,0.00,CLR,,0.00,WeatherDisplay:10.37,2013-01-13 19:35:00,
2013-01-13 12:40:00,10.4,3.8,29.60,WSW,248,0.0,0.0,74,0.00,CLR,,0.00,WeatherDisplay:10.37,2013-01-13 19:40:00,
2013-01-13 12:45:00,10.6,4.2,29.60,SSW,202,0.0,0.0,75,0.00,CLR,,0.00,WeatherDisplay:10.37,2013-01-13 19:45:00,
2013-01-13 12:50:00,10.9,4.6,29.60,SW,225,0.0,0.0,75,0.00,CLR,,0.00,WeatherDisplay:10.37,2013-01-13 19:50:00,
2013-01-13 12:55:00,10.9,4.6,29.59,SW,225,0.0,0.0,75,0.00,CLR,,0.00,WeatherDisplay:10.37,2013-01-13 19:55:00,
2013-01-13 13:00:00,10.9,4.6,29.59,SSW,202,0.0,0.0,75,0.00,CLR,,0.00,WeatherDisplay:10.37,2013-01-13 20:00:00,
2013-01-13 13:05:00,10.9,4.6,29.59,SW,225,0.0,0.0,75,0.00,CLR,,0.00,WeatherDisplay:10.37,2013-01-13 20:05:00,
2013-01-13 13:10:00,11.1,4.7,29.59,SW,225,0.0,0.0,75,0.00,CLR,,0.00,WeatherDisplay:10.37,2013-01-13 20:10:00,
2013-01-13 13:15:00,11.3,4.6,29.59,SW,225,0.0,0.1,74,0.00,CLR,,0.00,WeatherDisplay:10.37,2013-01-13 20:15:00,
2013-01-13 13:20:00,11.3,4.6,29.59,WSW,248,0.0,0.0,74,0.00,CLR,,0.00,WeatherDisplay:10.37,2013-01-13 20:20:00,
2013-01-13 13:25:00,11.3,4.6,29.59,SW,225,0.0,0.0,74,0.00,CLR,,0.00,WeatherDisplay:10.37,2013-01-13 20:25:00,
2013-01-13 13:30:00,11.3,4.6,29.59,SSW,202,0.0,0.0,74,0.00,CLR,,0.00,WeatherDisplay:10.37,2013-01-13 20:30:00,
2013-01-13 13:35:00,11.7,5.0,29.56,WSW,248,0.0,0.0,74,0.00,CLR,,0.00,WeatherDisplay:10.37,2013-01-13 20:35:00,
2013-01-13 13:40:00,11.5,4.8,29.56,SSW,202,0.0,0.0,74,0.00,CLR,,0.00,WeatherDisplay:10.37,2013-01-13 20:40:00,
2013-01-13 13:45:00,11.7,5.0,29.56,WSW,248,0.0,0.0,74,0.00,CLR,,0.00,WeatherDisplay:10.37,2013-01-13 20:45:00,
2013-01-13 13:50:00,11.8,5.1,29.56,SW,225,0.0,0.0,74,0.00,CLR,,0.00,WeatherDisplay:10.37,2013-01-13 20:50:00,
2013-01-13 13:55:00,12.0,5.3,29.58,WSW,248,0.0,0.0,74,0.00,CLR,,0.00,WeatherDisplay:10.37,2013-01-13 20:55:00,
2013-01-13 14:00:00,12.4,5.7,29.58,WSW,248,0.0,0.0,74,0.00,CLR,,0.00,WeatherDisplay:10.37,2013-01-13 21:00:00,
2013-01-13 14:05:00,12.4,6.0,29.58,WSW,248,0.0,0.0,75,0.00,CLR,,0.00,WeatherDisplay:10.37,2013-01-13 21:05:00,
2013-01-13 14:10:00,12.6,6.1,29.58,WSW,248,0.0,0.0,75,0.00,CLR,,0.00,WeatherDisplay:10.37,2013-01-13 21:10:00,
2013-01-13 14:15:00,12.7,6.3,29.59,WSW,248,0.0,0.0,75,0.00,CLR,,0.00,WeatherDisplay:10.37,2013-01-13 21:15:00,
2013-01-13 14:20:00,13.1,6.7,29.59,WSW,248,0.0,0.0,75,0.00,CLR,,0.00,WeatherDisplay:10.37,2013-01-13 21:20:00,
2013-01-13 14:25:00,13.1,6.7,29.59,South,180,0.0,0.0,75,0.00,CLR,,0.00,WeatherDisplay:10.37,2013-01-13 21:25:00,
2013-01-13 14:30:00,13.1,6.7,29.59,South,180,0.0,0.0,75,0.00,CLR,,0.00,WeatherDisplay:10.37,2013-01-13 21:30:00,
2013-01-13 14:35:00,13.1,6.7,29.55,SW,225,0.0,0.0,75,0.00,CLR,,0.00,WeatherDisplay:10.37,2013-01-13 21:35:00,
2013-01-13 14:40:00,13.1,6.7,29.55,SW,225,0.0,0.0,75,0.00,CLR,,0.00,WeatherDisplay:10.37,2013-01-13 21:40:00,
2013-01-13 14:45:00,13.1,6.7,29.55,SSW,202,0.0,0.0,75,0.00,CLR,,0.00,WeatherDisplay:10.37,2013-01-13 21:45:00,
2013-01-13 14:50:00,13.1,6.7,29.55,SE,135,0.0,0.0,75,0.00,CLR,,0.00,WeatherDisplay:10.37,2013-01-13 21:50:00,
2013-01-13 14:55:00,13.1,6.7,29.56,SE,135,0.0,0.0,75,0.00,CLR,,0.00,WeatherDisplay:10.37,2013-01-13 21:55:00,
2013-01-13 15:00:00,13.1,6.7,29.56,SE,135,0.0,0.0,75,0.00,CLR,,0.00,WeatherDisplay:10.37,2013-01-13 22:00:00,
2013-01-13 15:05:00,12.9,6.5,29.56,South,180,0.0,0.0,75,0.00,CLR,,0.00,WeatherDisplay:10.37,2013-01-13 22:05:00,
2013-01-13 15:10:00,13.1,6.7,29.56,SSE,158,0.0,0.0,75,0.00,CLR,,0.00,WeatherDisplay:10.37,2013-01-13 22:10:00,
2013-01-13 15:15:00,13.1,6.7,29.52,SSE,158,0.0,0.0,75,0.00,CLR,,0.00,WeatherDisplay:10.37,2013-01-13 22:15:00,
2013-01-13 15:20:00,13.1,6.7,29.52,South,180,0.0,0.0,75,0.00,CLR,,0.00,WeatherDisplay:10.37,2013-01-13 22:20:00,
2013-01-13 15:25:00,13.1,6.7,29.52,SSW,202,0.0,0.0,75,0.00,CLR,,0.00,WeatherDisplay:10.37,2013-01-13 22:25:00,
2013-01-13 15:30:00,13.1,6.7,29.52,WSW,248,0.0,0.0,75,0.00,CLR,,0.00,WeatherDisplay:10.37,2013-01-13 22:30:00,
2013-01-13 15:35:00,12.7,6.3,29.51,SW,225,0.0,0.0,75,0.00,CLR,,0.00,WeatherDisplay:10.37,2013-01-13 22:35:00,
2013-01-13 15:40:00,12.7,6.0,29.51,SSW,202,0.0,0.0,74,0.00,CLR,,0.00,WeatherDisplay:10.37,2013-01-13 22:40:00,
2013-01-13 15:45:00,12.4,5.7,29.51,SSW,202,0.0,0.0,74,0.00,CLR,,0.00,WeatherDisplay:10.37,2013-01-13 22:45:00,
2013-01-13 15:50:00,12.4,5.7,29.51,SSW,202,0.0,0.0,74,0.00,CLR,,0.00,WeatherDisplay:10.37,2013-01-13 22:50:00,
2013-01-13 15:55:00,11.8,5.1,29.51,SSW,202,0.0,0.0,74,0.00,CLR,,0.00,WeatherDisplay:10.37,2013-01-13 22:55:00,
2013-01-13 16:00:00,11.7,5.0,29.51,SSE,158,0.0,0.0,74,0.00,CLR,,0.00,WeatherDisplay:10.37,2013-01-13 23:00:00,
2013-01-13 16:05:00,11.5,4.8,29.51,SSE,158,0.0,0.0,74,0.00,CLR,,0.00,WeatherDisplay:10.37,2013-01-13 23:05:00,
2013-01-13 16:10:00,11.3,4.6,29.51,SW,225,0.0,0.0,74,0.00,CLR,,0.00,WeatherDisplay:10.37,2013-01-13 23:10:00,
2013-01-13 16:15:00,11.1,4.4,29.51,SSE,158,0.0,0.1,74,0.00,CLR,,0.00,WeatherDisplay:10.37,2013-01-13 23:15:00,
2013-01-13 16:20:00,10.9,4.3,29.51,ESE,112,0.0,0.1,74,0.00,CLR,,0.00,WeatherDisplay:10.37,2013-01-13 23:20:00,
2013-01-13 16:25:00,10.6,3.9,29.51,SSE,158,0.0,0.1,74,0.00,CLR,,0.00,WeatherDisplay:10.37,2013-01-13 23:25:00,
2013-01-13 16:30:00,10.4,3.8,29.51,SSW,202,0.0,0.0,74,0.00,CLR,,0.00,WeatherDisplay:10.37,2013-01-13 23:30:00,
2013-01-13 16:35:00,10.2,3.6,29.50,SE,135,0.0,0.0,74,0.00,CLR,,0.00,WeatherDisplay:10.37,2013-01-13 23:35:00,
2013-01-13 16:40:00,9.9,3.2,29.50,North,0,0.0,0.0,74,0.00,CLR,,0.00,WeatherDisplay:10.37,2013-01-13 23:40:00,
2013-01-13 16:45:00,9.5,2.9,29.50,ENE,68,0.0,0.0,74,0.00,CLR,,0.00,WeatherDisplay:10.37,2013-01-13 23:45:00,
2013-01-13 16:50:00,9.1,2.5,29.50,NE,45,0.0,0.0,74,0.00,CLR,,0.00,WeatherDisplay:10.37,2013-01-13 23:50:00,
2013-01-13 16:55:00,8.8,2.2,29.50,NNE,22,0.0,0.0,74,0.00,CLR,,0.00,WeatherDisplay:10.37,2013-01-13 23:55:00,
2013-01-13 17:00:00,8.2,1.7,29.50,NE,45,0.0,0.0,74,0.00,CLR,,0.00,WeatherDisplay:10.37,2013-01-14 00:00:00,
2013-01-13 17:05:00,7.7,1.1,29.50,NNE,22,0.0,0.0,74,0.00,CLR,,0.00,WeatherDisplay:10.37,2013-01-14 00:05:00,
2013-01-13 17:10:00,7.3,0.8,29.50,NNE,22,0.0,0.0,74,0.00,CLR,,0.00,WeatherDisplay:10.37,2013-01-14 00:10:00,
2013-01-13 17:15:00,7.0,0.4,29.50,NNE,22,0.0,0.0,74,0.00,CLR,,0.00,WeatherDisplay:10.37,2013-01-14 00:15:00,
2013-01-13 17:20:00,6.6,0.1,29.50,NNE,22,0.0,0.0,74,0.00,CLR,,0.00,WeatherDisplay:10.37,2013-01-14 00:20:00,
2013-01-13 17:26:00,6.1,-0.4,29.50,ENE,68,0.0,0.0,74,0.00,CLR,,0.00,WeatherDisplay:10.37,2013-01-14 00:26:00,
2013-01-13 17:31:00,5.9,-0.6,29.50,NW,315,0.0,0.0,74,0.00,CLR,,0.00,WeatherDisplay:10.37,2013-01-14 00:31:00,
2013-01-13 17:36:00,5.4,-1.1,29.52,ENE,68,0.0,0.0,74,0.00,CLR,,0.00,WeatherDisplay:10.37,2013-01-14 00:36:00,
2013-01-13 17:41:00,5.2,-1.6,29.52,NNE,22,0.0,0.0,73,0.00,CLR,,0.00,WeatherDisplay:10.37,2013-01-14 00:41:00,
2013-01-13 17:46:00,4.6,-2.1,29.52,NE,45,0.0,0.0,73,0.00,CLR,,0.00,WeatherDisplay:10.37,2013-01-14 00:46:00,
2013-01-13 17:51:00,4.5,-2.0,29.52,NNW,338,0.0,0.0,74,0.00,CLR,,0.00,WeatherDisplay:10.37,2013-01-14 00:51:00,
2013-01-13 17:56:00,4.3,-2.2,29.53,North,0,0.0,0.0,74,0.00,CLR,,0.00,WeatherDisplay:10.37,2013-01-14 00:56:00,
2013-01-13 18:01:00,4.1,-2.6,29.53,North,0,0.0,0.0,73,0.00,CLR,,0.00,WeatherDisplay:10.37,2013-01-14 01:01:00,
2013-01-13 18:06:00,3.9,-2.5,29.53,NNW,338,0.0,0.0,74,0.00,CLR,,0.00,WeatherDisplay:10.37,2013-01-14 01:06:00,
2013-01-13 18:11:00,3.7,-2.7,29.53,North,0,0.0,0.0,74,0.00,CLR,,0.00,WeatherDisplay:10.37,2013-01-14 01:11:00,
2013-01-13 18:16:00,3.7,-2.7,29.53,NE,45,0.0,0.0,74,0.00,CLR,,0.00,WeatherDisplay:10.37,2013-01-14 01:16:00,
2013-01-13 18:21:00,3.7,-2.7,29.53,NNE,22,0.0,0.0,74,0.00,CLR,,0.00,WeatherDisplay:10.37,2013-01-14 01:21:00,
2013-01-13 18:26:00,3.7,-2.7,29.53,NNE,22,0.0,0.0,74,0.00,CLR,,0.00,WeatherDisplay:10.37,2013-01-14 01:26:00,
2013-01-13 18:31:00,3.4,-3.0,29.53,North,0,0.0,0.0,74,0.00,CLR,,0.00,WeatherDisplay:10.37,2013-01-14 01:31:00,
2013-01-13 18:36:00,3.2,-3.2,29.53,North,0,0.0,0.0,74,0.00,CLR,,0.00,WeatherDisplay:10.37,2013-01-14 01:36:00,
2013-01-13 18:41:00,3.4,-3.0,29.53,North,0,0.0,0.0,74,0.00,CLR,,0.00,WeatherDisplay:10.37,2013-01-14 01:41:00,
2013-01-13 18:46:00,3.2,-3.2,29.53,NNW,338,0.0,0.0,74,0.00,CLR,,0.00,WeatherDisplay:10.37,2013-01-14 01:46:00,
2013-01-13 18:52:00,3.2,-3.2,29.53,North,0,0.0,0.0,74,0.00,CLR,,0.00,WeatherDisplay:10.37,2013-01-14 01:52:00,
2013-01-13 18:57:00,3.0,-3.4,29.51,North,0,0.0,0.0,74,0.00,CLR,,0.00,WeatherDisplay:10.37,2013-01-14 01:57:00,
2013-01-13 19:02:00,3.0,-3.4,29.51,NNW,338,0.0,0.0,74,0.00,CLR,,0.00,WeatherDisplay:10.37,2013-01-14 02:02:00,
2013-01-13 19:07:00,3.0,-3.4,29.51,NNW,338,0.0,0.0,74,0.00,CLR,,0.00,WeatherDisplay:10.37,2013-01-14 02:07:00,
2013-01-13 19:12:00,3.0,-3.4,29.51,North,0,0.0,0.0,74,0.00,CLR,,0.00,WeatherDisplay:10.37,2013-01-14 02:12:00,
2013-01-13 19:17:00,3.0,-3.4,29.52,NE,45,0.0,0.0,74,0.00,CLR,,0.00,WeatherDisplay:10.37,2013-01-14 02:17:00,
2013-01-13 19:22:00,3.0,-3.4,29.52,North,0,0.0,0.0,74,0.00,CLR,,0.00,WeatherDisplay:10.37,2013-01-14 02:22:00,
2013-01-13 19:27:00,3.2,-3.2,29.52,North,0,0.0,0.0,74,0.00,CLR,,0.00,WeatherDisplay:10.37,2013-01-14 02:27:00,
2013-01-13 19:32:00,3.2,-3.2,29.52,NNW,338,0.0,0.0,74,0.00,CLR,,0.00,WeatherDisplay:10.37,2013-01-14 02:32:00,
2013-01-13 19:37:00,3.2,-3.2,29.51,North,0,0.0,0.0,74,0.00,CLR,,0.00,WeatherDisplay:10.37,2013-01-14 02:37:00,
2013-01-13 19:42:00,3.2,-3.2,29.51,North,0,0.0,0.0,74,0.00,CLR,,0.00,WeatherDisplay:10.37,2013-01-14 02:42:00,
2013-01-13 19:47:00,3.2,-3.2,29.51,NW,315,0.0,0.0,74,0.00,CLR,,0.00,WeatherDisplay:10.37,2013-01-14 02:47:00,
2013-01-13 19:52:00,3.0,-3.4,29.51,North,0,0.0,0.0,74,0.00,CLR,,0.00,WeatherDisplay:10.37,2013-01-14 02:52:00,
2013-01-13 19:57:00,3.2,-3.2,29.51,North,0,0.0,0.0,74,0.00,CLR,,0.00,WeatherDisplay:10.37,2013-01-14 02:57:00,
2013-01-13 20:02:00,3.2,-3.2,29.51,NNW,338,0.0,0.0,74,0.00,CLR,,0.00,WeatherDisplay:10.37,2013-01-14 03:02:00,
2013-01-13 20:07:00,3.2,-3.2,29.51,North,0,0.0,0.0,74,0.00,CLR,,0.00,WeatherDisplay:10.37,2013-01-14 03:07:00,
2013-01-13 20:12:00,3.2,-3.2,29.51,NNW,338,0.0,0.0,74,0.00,CLR,,0.00,WeatherDisplay:10.37,2013-01-14 03:12:00,
2013-01-13 20:17:00,3.2,-3.2,29.50,NE,45,0.0,0.0,74,0.00,CLR,,0.00,WeatherDisplay:10.37,2013-01-14 03:17:00,
2013-01-13 20:22:00,3.4,-3.0,29.50,NE,45,0.0,0.0,74,0.00,CLR,,0.00,WeatherDisplay:10.37,2013-01-14 03:22:00,
2013-01-13 20:27:00,3.4,-3.0,29.50,NE,45,0.0,0.0,74,0.00,CLR,,0.00,WeatherDisplay:10.37,2013-01-14 03:27:00,
2013-01-13 20:32:00,3.2,-3.2,29.50,North,0,0.0,0.0,74,0.00,CLR,,0.00,WeatherDisplay:10.37,2013-01-14 03:32:00,
2013-01-13 20:37:00,3.2,-3.2,29.50,NNW,338,0.0,0.0,74,0.00,CLR,,0.00,WeatherDisplay:10.37,2013-01-14 03:37:00,
2013-01-13 20:42:00,3.2,-3.2,29.50,NNW,338,0.0,0.0,74,0.00,CLR,,0.00,WeatherDisplay:10.37,2013-01-14 03:42:00,
2013-01-13 20:47:00,3.4,-3.0,29.50,North,0,0.0,0.0,74,0.00,CLR,,0.00,WeatherDisplay:10.37,2013-01-14 03:47:00,
2013-01-13 20:52:00,3.0,-3.4,29.50,NNW,338,0.0,0.0,74,0.00,CLR,,0.00,WeatherDisplay:10.37,2013-01-14 03:52:00,
2013-01-13 20:57:00,3.0,-3.4,29.51,North,0,0.0,0.0,74,0.00,CLR,,0.00,WeatherDisplay:10.37,2013-01-14 03:57:00,
2013-01-13 21:02:00,3.0,-3.4,29.51,NNW,338,0.0,0.0,74,0.00,CLR,,0.00,WeatherDisplay:10.37,2013-01-14 04:02:00,
2013-01-13 21:07:00,3.2,-3.2,29.51,NNW,338,0.0,0.0,74,0.00,CLR,,0.00,WeatherDisplay:10.37,2013-01-14 04:07:00,
2013-01-13 21:12:00,3.2,-3.2,29.51,NNW,338,0.0,0.0,74,0.00,CLR,,0.00,WeatherDisplay:10.37,2013-01-14 04:12:00,
2013-01-13 21:17:00,3.2,-3.2,29.50,NNE,22,0.0,0.0,74,0.00,CLR,,0.00,WeatherDisplay:10.37,2013-01-14 04:17:00,
2013-01-13 21:22:00,3.4,-3.0,29.50,North,0,0.0,0.0,74,0.00,CLR,,0.00,WeatherDisplay:10.37,2013-01-14 04:22:00,
2013-01-13 21:27:00,3.4,-3.0,29.50,North,0,0.0,0.0,74,0.00,CLR,,0.00,WeatherDisplay:10.37,2013-01-14 04:27:00,
2013-01-13 21:32:00,3.7,-2.7,29.50,North,0,0.0,0.0,74,0.00,CLR,,0.00,WeatherDisplay:10.37,2013-01-14 04:32:00,
2013-01-13 21:37:00,3.7,-2.7,29.51,North,0,0.0,0.0,74,0.00,CLR,,0.00,WeatherDisplay:10.37,2013-01-14 04:37:00,
2013-01-13 21:42:00,3.7,-2.7,29.51,SSE,158,0.0,0.0,74,0.00,CLR,,0.00,WeatherDisplay:10.37,2013-01-14 04:42:00,
2013-01-13 23:55:00,6.1,-0.1,29.52,North,0,0.0,0.0,75,0.00,CLR,,0.00,WeatherDisplay:10.37,2013-01-14 06:55:00,
2013-01-13 23:56:00,6.1,-0.1,29.52,North,0,0.0,0.0,75,0.00,CLR,,0.00,WeatherDisplay:10.37,2013-01-14 06:56:00,